Location: Oklahoma City
(35.4680°N, 97.5160°W)
Time: 20:17:35
(UTC-06:00)

ISS - Visible Passes

Search period start: 28 November 2014 00:00
Search period end: 08 December 2014 00:00
Orbit: 407 x 417 km, 51.6° (Epoch: 28 November)

Date Brightness Start Highest point End Pass type
(mag) Time Alt. Az. Time Alt. Az. Time Alt. Az.
28 Nov -0.5 05:00:16 17° ENE 05:00:16 17° ENE 05:01:32 10° E visible
28 Nov -2.5 06:33:06 13° WNW 06:35:41 37° SW 06:38:45 10° SSE visible
29 Nov -3.5 05:45:38 70° W 05:45:54 78° SW 05:49:11 10° SE visible
30 Nov -0.5 04:58:12 18° ESE 04:58:12 18° ESE 04:59:13 10° ESE visible
30 Nov -1.0 06:31:02 10° WSW 06:32:17 12° SW 06:33:40 10° SSW visible
01 Dec -1.4 05:43:39 20° SSW 05:43:39 20° SSW 05:45:13 10° S visible
05 Dec -1.8 18:58:50 10° SSW 19:00:47 26° S 19:00:47 26° S visible
06 Dec -1.4 18:09:38 10° S 18:11:52 17° SE 18:13:08 14° E visible
06 Dec -0.2 19:45:11 10° WSW 19:45:57 15° W 19:45:57 15° W visible
07 Dec -3.3 18:54:48 10° SW 18:58:04 72° NW 18:58:11 71° NNW visible
